Location: Lyndhurst
(50.8667°N, 1.5833°W)
Time: 22:21:33
(UTC+00:00)

Daily predictions for brighter satellites

Satellite Brightness Start Highest point End
(mag) Time Altitude Azimuth Time Altitude Azimuth Time Altitude Azimuth
CENTAUR R/B 3.3 18:15:47 10° NW 18:23:34 68° NE 18:32:16 10° ESE
Iridium 4 Rocket 3.8 18:23:56 10° S 18:29:11 87° W 18:34:55 10° N
CSL-04 Debris 4.2 18:26:18 10° SSE 18:31:35 61° ENE 18:36:55 10° N
Cosmos 1025 Rocket 3.3 18:28:58 10° N 18:33:16 50° ENE 18:37:33 10° SSE
Helios 1A Rocket 3.7 18:29:15 10° S 18:33:19 59° WSW 18:37:27 10° NNW
CSL-04 Rocket 3.8 18:28:11 10° SSE 18:33:33 61° ENE 18:39:01 10° N
NOSS 2-2 (D) 3.1 18:31:03 10° SW 18:34:33 74° SE 18:38:36 10° NE
ATLAS 2AS CENTAUR R/B 4.0 18:28:57 10° SSE 18:34:43 23° ESE 18:40:28 10° ENE
Cosmos 1937 Rocket 3.8 18:29:30 10° SSW 18:34:43 74° WNW 18:39:57 10° NNE
Okean 2 Rocket 3.5 18:30:43 10° SSE 18:34:56 42° E 18:39:10 10° NNE
ATLAS 3B R/B 3.4 18:29:27 10° NW 18:35:47 40° NNE 18:42:19 10° E
YAOGAN 1 2.5 18:31:43 10° SSE 18:36:03 82° ENE 18:40:25 10° NNW
SKYMED 2 3.8 18:33:10 10° NNE 18:37:32 79° WNW 18:41:52 10° SSW
Abrixas rocket 2.7 18:36:40 10° W 18:39:23 41° SSW 18:42:06 10° ESE
CREW DRAGON DEMO-1 DEB 3.1 18:38:15 10° W 18:41:14 63° SSW 18:44:14 10° ESE
CZ-4B R/B 4.3 18:38:53 10° N 18:41:42 23° WNW 18:44:32 10° WSW
Cosmos 1536 Rocket 3.8 18:38:42 10° N 18:43:03 48° ENE 18:47:23 10° SSE
Cosmos 1125 Rocket 4.1 18:42:32 10° SSE 18:47:19 35° ESE 18:52:07 10° NE
SJ-6B 4.0 18:48:31 10° ESE 18:51:28 23° ENE 18:54:31 10° N
USA 238 DEB 4.1 18:45:51 10° NW 18:53:01 75° SW 19:00:29 10° SSE
USA 238 4.1 18:45:57 10° NW 18:53:08 75° SW 19:00:35 10° SSE
CZ-4 R/B 2.2 18:49:32 10° S 18:53:41 57° W 18:57:48 10° NNW
Cosmos 2150 Rocket 4.2 18:48:52 10° S 18:54:08 57° ESE 18:59:30 10° NNE
SJ-11-01 4.2 18:50:02 10° SSE 18:54:44 77° ENE 18:59:26 10° NNW
Cosmos 1674 3.1 18:51:46 10° N 18:55:27 41° ENE 18:59:06 10° SE
CZ-2C R/B 3.3 18:50:24 10° SSE 18:55:50 88° WSW 19:01:34 10° NNW
Cosmos 1464 Rocket 3.9 18:49:48 10° S 18:55:53 69° E 19:02:04 10° NNE
Cosmos 1092 Rocket 4.4 18:50:24 10° N 18:56:15 42° ENE 19:02:05 10° SE
Okean-O 3.8 18:53:17 10° S 18:57:34 47° W 19:01:53 10° NNW
Cosmos 2285 Rocket 4.4 18:52:20 10° SSE 18:58:05 39° ESE 19:03:54 10° NE
MOS 1 Rocket 3.3 18:58:08 10° NNE 19:02:24 47° E 19:06:32 10° S
FREGAT/IRIS 3.7 19:04:41 19° E 19:05:06 20° ENE 19:07:08 10° NNE
In-Cosmos 22 4.3 19:04:20 10° NNW 19:09:39 75° W 19:15:01 10° S
Cosmos 1048 Rocket 4.4 19:05:27 10° NNW 19:10:46 69° WSW 19:16:05 10° SSE
ARGOS 3.1 19:06:03 10° SSE 19:11:25 78° ENE 19:16:50 10° NNW
CZ-2C R/B 3.3 19:07:29 10° NNE 19:12:32 34° E 19:17:36 10° SSE
Cosmos 1340 Rocket 4.1 19:15:11 19° E 19:15:14 19° E 19:18:08 10° NE
Cosmos 1733 4.1 19:13:47 11° SSE 19:16:52 28° E 19:20:10 10° NNE
Lacrosse 5 rocket 2.6 19:13:18 10° WNW 19:17:23 37° N 19:20:43 15° ENE
Cosmos 2151 Rocket 3.5 19:13:05 10° S 19:17:33 80° E 19:22:06 10° NNE
Cosmos 2082 Rocket 3.3 19:13:29 10° NNW 19:18:16 28° NE 19:21:17 18° E
HJ-1C 4.0 19:15:04 10° S 19:18:18 57° W 19:21:36 10° NNW
MOS 1 4.5 19:13:23 10° SE 19:18:55 54° ENE 19:24:28 10° N
NOSS 2-2 (C) 4.1 19:15:54 10° WSW 19:19:24 49° NW 19:23:30 10° NE
BREEZE-M DEB (TANK) 3.9 19:18:41 10° W 19:21:33 34° SSW 19:27:36 12° SE
BREEZE-M R/B 4.4 19:11:26 10° WSW 19:22:28 49° SSE 19:24:25 24° ESE
Cosmos 494 Rocket 4.1 19:18:17 10° NNW 19:23:35 79° WSW 19:28:50 10° SSE
Meteor 1-15 Rocket 4.2 19:22:40 10° S 19:28:17 68° E 19:34:02 10° NNE
Cosmos 1805 3.3 19:24:53 10° S 19:28:40 51° E 19:32:30 10° NNE
OBJECT-B 1.7 19:28:48 29° E 19:29:05 29° ENE 19:31:58 10° N
Ariane Rocket 2.9 19:28:13 10° SSE 19:33:16 74° ENE 19:38:22 10° NNW
SL-08 RB Rocket 3.6 19:28:44 10° SSE 19:33:18 87° ENE 19:37:51 10° NNW
H-2A R/B 2.7 19:29:53 10° S 19:34:47 54° W 19:39:52 10° NNW
Cosmos 1269 Rocket 4.0 19:30:11 10° NNW 19:35:32 78° ENE 19:39:33 18° SSE
Nadezhda 4 Rocket 4.2 19:30:46 10° NNW 19:36:51 71° W 19:42:56 10° S
KORONAS-FOTON 4.0 19:33:06 10° NNW 19:37:02 73° W 19:40:56 10° S
Cosmos 1626 2.2 19:37:08 10° N 19:40:48 55° ENE 19:42:02 36° SE
Okean 1-7 Rocket 4.4 19:36:51 10° N 19:40:59 32° ENE 19:41:50 30° E
Cosmos 2263 Rocket 4.3 19:38:30 10° W 19:43:10 26° NW 19:47:53 10° NNE
COSMOS 2406 3.2 19:39:00 10° NNW 19:44:41 70° ENE 19:47:55 26° SE
USA 186 2.0 19:42:34 19° S 19:44:46 70° W 19:48:05 10° NNW
MetOp-A 4.1 19:40:20 15° SSE 19:44:48 75° ENE 19:50:11 10° NNW
Cosmos 1455 Rocket 4.4 19:47:18 22° ENE 19:47:18 22° ENE 19:49:39 10° NNE
Cosmos 1844 Rocket 2.9 19:41:21 10° SW 19:46:55 73° WNW 19:52:34 10° NNE
ISS -3.7 19:43:34 10° W 19:46:57 78° N 19:47:46 48° ENE
Cosmos 2278 Rocket 2.9 19:51:32 31° E 19:51:32 31° E 19:56:10 10° NE
Lacrosse 4 Rocket 2.0 19:48:23 10° NNW 19:52:13 37° NE 19:52:52 35° ENE
IRS-1A Rocket 4.5 19:48:15 10° SSE 19:54:09 80° WSW 20:00:00 10° NNW
Cosmos 1844 3.8 19:48:54 10° SSW 19:54:36 79° WNW 20:00:16 10° NNE
Meteor 2-5 Rocket 3.8 19:49:27 10° NNW 19:55:09 82° W 20:00:46 11° S
Meteor 1-22 Rocket 4.4 19:50:22 10° S 19:56:11 61° E 20:02:11 10° NNE
Cosmos 2034 Rocket 4.5 19:50:48 10° SSW 19:57:06 64° WNW 20:03:24 10° N
Cosmos 909 Rocket 4.4 19:50:38 10° NW 19:57:11 52° NE 19:59:54 32° E
Meteor 1-24 Rocket 3.6 19:51:54 10° NNW 19:57:30 83° ENE 20:01:37 20° SSE
Exosat Rocket 3.4 19:53:45 10° SSW 19:59:01 88° WNW 20:04:06 10° NNE
SL-14 R/B 3.1 19:56:48 10° N 20:00:46 82° E 20:01:55 45° SSE
Okean 1 Rocket 3.2 19:56:48 10° SSW 20:01:17 79° W 20:05:48 10° N
NOSS 3-4 (A) 3.3 19:56:06 10° SSW 20:01:56 62° SE 20:08:12 10° NE
NOSS 3-4 (C) 3.3 19:56:13 10° SSW 20:02:02 61° SE 20:08:18 10° NE
Resurs 01 Rocket 1.9 20:03:26 45° E 20:03:59 48° ENE 20:08:17 10° N
Cosmos 1833 Rocket 2.6 20:04:06 10° NNW 20:09:48 80° ENE 20:11:54 40° SE
Cosmos 1766 3.5 20:06:33 10° SSW 20:10:28 69° WNW 20:14:26 10° N
CZ-2C R/B 4.5 20:06:54 10° NNE 20:09:58 34° ENE 20:09:58 34° ENE
Cosmos 2251 Rocket 3.8 20:07:27 10° NNW 20:12:43 52° ENE 20:13:43 45° E
CENTAUR R/B 4.0 20:06:42 10° NW 20:14:18 46° WSW 20:22:00 12° S
ERS-1 Rocket 4.4 20:17:40 23° NE 20:17:40 23° NE 20:21:17 10° N
ARIANE 5 R/B 3.3 20:20:05 39° NE 20:20:05 39° NE 20:23:38 10° N
SPOT 3 Rocket 3.4 20:20:51 42° SSE 20:22:38 89° W 20:27:50 10° NNW
Cosmos 1634 Rocket 4.0 20:18:28 10° SSW 20:24:39 82° W 20:30:55 10° N
ATLAS 2AS CENTAUR R/B 2.9 20:16:45 10° SSW 20:24:42 77° SE 20:32:33 10° NE
SJ-6B 4.1 20:24:09 22° SSW 20:25:57 35° W 20:29:30 10° NNW
ATLAS 3B R/B 2.7 20:20:13 10° NW 20:27:04 80° SW 20:29:50 41° SSE
Resurs 1-3 3.7 20:26:18 51° SSW 20:27:19 71° WSW 20:31:44 10° NNW
Landsat 7 4.3 20:27:59 44° NE 20:27:59 44° NE 20:32:09 10° N
Cosmos 1892 Rocket 3.6 20:23:30 10° NNW 20:27:51 74° W 20:28:36 58° SSW
Meteor 1-21 Rocket 4.4 20:27:06 10° N 20:32:47 55° ENE 20:33:16 53° E
SPOT 5 4.2 20:33:48 29° NE 20:33:48 29° NE 20:37:54 10° N
Cosmos 1655 Rocket 3.9 20:30:07 10° N 20:36:25 71° ENE 20:37:50 54° SE
Cosmos 1461 4.0 20:35:05 10° NNW 20:39:30 40° NE 20:39:30 40° NE
CRYOSAT 2 4.3 20:46:24 10° N 20:51:19 83° W 20:51:19 83° W
Cosmos 1340 Rocket 3.9 20:50:43 39° W 20:51:22 43° WNW 20:55:14 10° N
CZ-2C R/B 3.7 20:47:40 10° N 20:52:57 46° WNW 20:58:16 10° SW
Lacrosse 5 rocket 2.1 20:52:39 10° WNW 20:56:20 56° NNW 20:56:20 56° NNW
Cosmos 2180 Rocket 4.4 20:57:16 52° S 20:59:00 90° W 21:05:25 10° N
MetOp-B 4.0 20:58:51 79° SW 20:59:05 82° WSW 21:04:28 10° NNW
Cosmos 2098 Rocket 3.9 20:54:01 10° NNW 21:00:52 81° W 21:01:45 66° SSW
Cosmos 2279 Rocket 4.1 20:57:29 26° SSW 21:01:09 72° WNW 21:07:27 10° N
OBJECT-B 3.4 21:02:00 19° W 21:02:00 19° W 21:03:59 10° NW
Cosmos 2082 Rocket 2.2 20:57:17 10° NNW 21:02:55 73° WSW 21:03:08 72° SW
Spot 2 Rocket 3.7 21:05:26 66° N 21:05:26 66° N 21:09:49 10° NNW
Cosmos 1809 Rocket 4.4 21:08:12 10° N 21:14:13 78° NE 21:14:13 78° NE
Terra 3.3 21:21:44 29° NNE 21:21:44 29° NNE 21:24:19 10° N
Cosmos 1140 Rocket 4.4 21:17:44 10° NNW 21:21:18 40° N 21:21:18 40° N
Cosmos 1455 Rocket 4.5 21:24:23 36° NW 21:24:23 36° NW 21:27:50 10° N
ISS -0.5 21:20:27 10° WNW 21:20:44 12° WNW 21:20:44 12° WNW
Cosmos 407 Rocket 4.3 21:22:46 10° NNW 21:26:26 45° N 21:26:26 45° N
SPOT 1/Viking Rocket 4.1 21:29:22 56° NW 21:29:22 56° NW 21:33:33 10° NNW
ATLAS CENTAUR R/B 4.0 21:26:36 10° NNW 21:27:26 13° N 21:27:26 13° N
Lacrosse 4 Rocket 3.5 21:27:12 10° NW 21:29:10 23° WNW 21:29:10 23° WNW
Cosmos 2278 Rocket 2.8 21:33:01 36° WSW 21:35:05 54° NW 21:40:40 10° NNE
Resurs 01 Rocket 3.7 21:41:01 23° W 21:41:01 23° W 21:44:16 10° NW
Cosmos 2266 Rocket 4.5 21:39:13 10° NNW 21:45:02 50° W 21:45:08 50° W
NOSS 3-4 (A) 4.5 21:47:22 10° W 21:53:07 43° NNW 21:59:24 10° NE
NOSS 3-4 (C) 4.5 21:47:27 10° W 21:53:13 43° NNW 21:59:31 10° NE
ERS-1 Rocket 4.3 21:57:40 37° NW 21:57:40 37° NW 22:00:47 10° NNW
SPOT 5 4.5 22:13:03 36° NW 22:13:03 36° NW 22:16:23 10° NNW
ATLAS 2AS CENTAUR R/B 3.9 22:08:45 10° W 22:16:21 45° NNW 22:23:43 10° NE
ATLAS 3B R/B 4.4 22:12:01 10° WNW 22:16:52 21° WSW 22:17:05 21° WSW
NOSS 3-1 (C) 4.3 22:31:16 10° NW 22:37:24 61° N 22:37:24 61° N
CZ-4C R/B 4.3 22:45:17 22° NE 22:45:17 22° NE 22:47:36 10° NE
COSMOS 2455 4.3 22:57:42 32° N 22:57:42 32° N 23:01:34 10° NNE
Cosmos 2297 Rocket 4.3 22:53:03 10° NNW 22:56:26 20° NNE 22:56:26 20° NNE
Terra 4.5 23:00:37 16° NW 23:00:37 16° NW 23:01:46 10° NW
Cosmos 2369 Rocket 4.4 23:10:31 18° NNE 23:10:31 18° NNE 23:11:53 10° NNE
SL-16 R/B 4.4 23:50:37 21° NE 23:50:37 21° NE 23:54:54 10° N
